Reflectivity
-20 -20 -20 -20 -20 -20 -20 -20 -20 -20 -20 -20 -20 -20 -20 -20 -20 -20 -20 -20 -20 -20 -20 -20 -20 -20 -20 -20 -20 -20 -20 -20 -20 -20 -20 -20 -20 -20 -20 -20 -20 -20 -20 -20 -20 7 -9 -11 -20 -20 -20 -20 -20 -20
-20 -20 -20 -20 -20 -20 -20 -20 -20 -18 -20 -20 -20 -20 -20 -20 -20 -20 -20 -20 -20 -20 -20 -20 -20 -20 -19 -20 -20 -20 -20 -20 -20 -19 -20 -10 -20 -20 -20 -20 -20 -20 -20 -20 -20 -20 -20 -20 -20 -20 -20 -10 -10 -20
-20 -20 -20 -20 -20 -20 -20 -20 1 -11 -20 -20 -20 -20 -20 -20 -20 -20 -20 -20 -20 -20 -20 -20 -20 -20 -20 -20 -20 -20 -20 -20 -20 -20 -14 -20 -20 -20 -20 -20 -20 -20 -20 -20 -20 -20 -20 -20 -20 -20 -20 -20 -20 -20
-20 -20 -9 -10 -9 -20 -20 -20 7 -3 -20 -20 -20 -20 -13 -7 -20 -20 -20 -20 -20 -20 -20 -20 -20 -20 -20 -20 -20 -20 -20 -20 -20 -20 -20 -20 -20 -20 -20 -20 -20 -20 -20 -20 -20 -20 -20 -20 -20 -20 -20 -20 -20 -20
-20 -20 -11 -3 2 -19 4 2 15 5 -15 -20 -20 -20 -5 -4 -20 -20 -20 -20 -20 -20 -20 -20 -20 -20 -20 -20 -20 -20 -20 -20 -20 -11 -20 -10 -20 -20 -20 -20 -20 -20 -20 -20 -20 -20 -20 -20 -20 -20 -20 -20 -20 -20
-15 -20 -20 -20 -14 -8 17 -7 15 2 -19 -20 -20 -20 1 -20 -20 -20 -20 -20 -20 -20 -20 -20 -20 -20 -20 -20 -20 -20 -20 -20 -18 -4 -13 -20 -20 -20 -20 -20 -20 -20 -20 -20 -20 -20 -20 -20 -20 -20 -20 -20 -20 -20
-20 -20 -20 -20 -20 -8 9 -15 19 1 -20 -5 -20 -14 -20 -18 -12 -20 -20 -20 -20 -20 -20 -20 -20 -20 -20 -20 -20 -20 -20 -8 -18 -15 -20 -20 -20 -20 -20 -20 -20 -20 -20 -20 -20 -20 -20 -20 -20 -20 -20 -20 -20 -20
-20 -10 -11 -20 -20 -10 5 -4 21 5 -20 -20 -10 -20 -20 -18 -18 -20 -20 -20 -20 -20 -20 -20 -20 -20 -20 -20 -20 -20 -20 -9 -17 -20 -20 -20 -20 -20 -20 -20 -20 -20 -20 -20 -20 -20 -20 -20 -20 -20 -20 -20 -20 -20
-8 6 3 -20 -20 2 7 7 23 6 -9 -20 -20 -20 -20 -20 -20 -20 -20 -20 -20 -20 -20 -20 -20 -20 -20 -20 -20 -20 -20 -10 -20 -18 -20 -20 -20 -20 -20 -20 -20 -20 -20 -20 -20 -20 -20 -20 -20 -20 -20 -20 -20 -20
7 11 10 0 -5 14 15 12 27 16 1 -20 -20 -20 -20 -15 -20 -20 -20 -20 -20 -20 -20 -20 -20 -20 -20 -20 -20 -20 -20 -20 -20 -20 -20 -20 -20 -20 -20 -20 -20 -20 -20 -20 -20 -20 -20 -20 -20 -20 -20 -20 -20 -20
12 21 20 18 7 21 13 15 26 10 -8 -19 -13 -20 -20 -20 -20 -20 -20 -20 -20 -20 -20 -20 -20 -20 -20 -20 -20 -20 -20 -20 -20 -20 -20 -20 -20 -20 -20 -20 -20 -20 -20 -20 -20 -20 -20 -20 -20 -20 -20 -20 -20 -20
14 26 26 11 21 21 16 15 22 6 7 4 -11 -9 -20 -19 -5 -7 -20 -20 -20 -20 -20 -12 -10 -20 -18 -20 -20 -20 -20 -20 -20 -20 -20 -20 -20 -20 -20 -20 -20 -20 -20 -20 -20 -20 -20 -20 -20 -20 -20 -20 -20 -20
21 25 18 16 27 20 25 26 11 17 17 17 19 -7 -20 -12 8 -5 -20 -20 -20 -20 -20 -20 -20 -20 -20 -20 -20 -20 -20 -20 -20 -20 -20 -20 -20 -20 -20 -20 -20 -20 -20 -20 -20 -20 -20 -20 -20 -20 -20 -20 -20 -20
24 18 15 25 28 29 26 23 17 19 29 18 9 -5 -20 10 6 -19 -20 -20 -20 -20 -20 -20 -20 -20 -20 -3 3 -15 -20 -20 -20 -20 -20 -20 -20 -20 -20 -20 -20 -20 -20 -20 -20 -20 -20 -20 -20 -20 -20 -20 -20 -20
27 23 28 28 34 30 27 26 27 22 22 18 4 -18 -5 11 -12 -7 -7 -18 -20 -20 -20 -5 4 -2 -4 9 6 -20 -20 -20 -20 -20 -20 -20 -20 -20 -20 -20 -20 -20 -20 -20 -20 -20 -20 -20 -20 -20 -20 -20 -20 -20
29 29 27 33 34 34 30 27 27 28 27 22 8 -20 3 -7 -20 -11 4 1 -5 8 14 16 17 13 0 -17 -12 -20 -20 -20 -20 -9 -19 -20 -20 -20 -20 -20 -20 -20 -20 -20 -20 -20 -20 -20 -20 -20 -20 -20 -20 -20
33 35 33 34 35 30 27 31 30 20 19 12 -10 -20 3 -11 -20 -7 5 3 12 13 16 18 17 11 8 -2 -12 -20 -20 -11 -14 -20 -20 -20 -20 -20 -20 -20 -20 -20 -20 -20 -20 -20 -20 -20 -20 -20 -20 -20 -20 -20
36 32 31 34 31 28 30 32 26 26 20 6 -20 -20 -20 -20 -20 -8 4 10 18 19 16 13 14 3 -4 -19 -12 3 5 -10 -4 -16 -20 -20 -20 -20 -20 -20 -20 -20 -20 -20 -20 -20 -20 -20 -20 -20 -20 -20 -20 -20
30 28 33 33 35 36 26 24 24 19 -1 -20 -20 -20 -18 -1 8 10 8 17 14 12 14 9 -1 -14 -20 -13 -13 2 3 -12 -20 -20 -20 -20 -20 -20 -20 -20 -16 -15 -20 -20 -20 -20 -20 -20 -20 -20 -20 -20 -20 -20
33 34 31 33 38 31 23 20 10 5 1 -20 -20 -16 -2 -3 3 10 3 -3 5 4 -3 -14 -20 -19 -11 5 5 3 -7 -20 -20 -20 -20 -20 -20 3 6 5 2 -16 -20 -20 -20 -20 -20 -20 -20 -20 -20 -20 -20 -20
32 33 35 38 31 27 20 15 7 -5 -20 -20 -20 -20 -14 3 5 -14 -20 -10 3 -13 -20 -20 -16 -20 -3 -10 -19 -20 -20 -20 -20 -20 -20 -20 -20 -10 -1 -1 -10 -20 -20 -20 -20 -20 -12 -20 -20 -20 -20 -20 -20 -20
33 31 27 31 25 22 22 21 14 -0 -4 -5 -2 4 -1 -20 -20 -20 -20 -20 -20 -20 -20 -20 -20 -20 -20 -20 -20 -20 -20 -20 -20 -20 -7 -19 -20 -20 -20 -20 -14 -20 -20 -20 -20 -20 -20 -20 -20 -20 -20 -20 -20 -20
31 31 23 22 21 19 17 1 2 8 12 10 -1 -7 -20 -20 -20 -20 -20 -20 -20 -20 -20 -20 -20 -20 -20 -20 -20 -20 -20 -20 -20 -20 -15 -20 -20 -20 -20 -20 -20 -20 -20 -20 -20 -20 -20 -13 -19 -20 -20 -20 -20 -20
17 17 15 11 13 7 -10 -20 -20 -2 -0 -12 -20 -20 -20 -20 -20 -20 -20 -20 -20 -20 -20 -20 -20 -20 -20 -20 -20 -20 -20 -20 -20 -20 -20 -20 -20 -20 -20 -20 -20 -20 -20 -20 -20 -20 -20 -20 -7 -20 -20 -20 -20 -20
7 -1 -20 -20 -20 -20 -20 -20 -20 -20 -20 -20 -20 -20 -20 -20 -20 -20 -20 -20 -20 -20 -20 -20 -20 -20 -20 -20 -20 -20 -20 -20 -20 -20 -20 -20 -20 -20 -20 -20 -20 -20 -20 -20 -20 -20 -20 -20 -20 -20 -20 -20 -20 -20
-20 -20 -20 -20 -20 -20 -20 -20 -20 -20 -20 -20 -20 -20 -20 -20 -20 -20 -20 -20 -20 -20 -20 -20 -20 -20 -20 -20 -20 -20 -20 -20 -20 -20 -20 -20 -20 -20 -20 -20 -20 -20 -20 -20 -20 -20 -20 -20 -20 -20 -20 -20 -5 -20
-20 -20 -20 -20 -20 -20 -20 -20 -20 -20 -20 -20 -20 -20 -20 -20 -20 -20 -20 -20 -20 -20 -20 -20 -20 -20 -20 -20 -20 -20 -20 -20 -20 -20 -20 -20 -20 -20 -20 -20 -20 -20 -20 -20 -20 -20 -20 -20 -20 -20 -20 -20 -20 -20
-20 -20 -20 -20 -20 -20 -20 -20 -20 -20 -20 -20 -20 -20 -20 -20 -20 -20 -20 -20 -20 -20 -20 -20 -20 -20 -20 -20 -20 -20 -20 -20 -20 -20 -20 -20 -20 -20 -20 -20 -20 -5 -20 -20 -20 -20 -20 -20 -20 -20 -20 -20 -20 -20
-20 -20 -20 -20 -20 -20 -20 -20 -20 -20 -20 -20 -20 -20 -20 -20 -20 -20 -20 -20 -20 -20 -20 -20 -20 -20 -20 -20 -20 -20 -20 -20 -20 -20 -20 -20 -20 -20 -20 -20 -20 -20 -20 -20 -19 -4 -20 -20 -20 -20 -20 -20 -20 -20
-20 -20 -20 -20 -20 -20 -20 -20 -20 -20 -20 -20 -20 -20 -20 -20 -20 -20 -20 -20 -20 -20 -20 -20 -20 -20 -20 -20 -20 -20 -20 -20 -20 -20 -20 -20 -20 -20 -20 -20 -20 -20 -20 -20 -20 -20 -2 6 -3 -5 -20 -20 -20 -20
-20 -20 -20 -20 -20 -20 -20 -20 -20 -20 -20 -20 -20 -20 -20 -20 -20 -20 -20 -20 -20 -20 -20 -20 -20 -20 -20 -20 -20 -20 -20 -20 -20 -20 -20 -20 -20 -20 -20 -20 -20 -20 -20 -20 -20 -20 -20 -20 -20 -20 -20 -20 -20 -20
-20 -20 -20 -20 -20 -20 -20 -20 -20 -20 -20 -20 -20 -20 -20 -20 -20 -20 -20 -20 -20 -20 -7 -20 -20 -20 -20 -20 -20 -20 -0 -20 -20 -20 -20 -20 -20 -20 -20 -20 -20 -20 -20 -20 -20 -20 -20 -20 -20 -20 -20 -20 -20 -20
-20 -20 -20 -20 -20 -20 -20 -20 -20 -20 -20 -20 -20 -20 -20 -20 -20 -20 -20 -20 -20 -20 -20 -20 -20 -20 -20 -20 -20 -20 -13 -20 -17 -2 5 6 7 4 -8 -20 -20 -20 -20 -20 -20 -20 -20 -20 -20 -20 -20 -20 -20 -20
Wind_Speed
13 11 11 10 8 7 8 10 12 13 14 15 15 17 17 13 12 5 2 3 2 1 0 1 1 2 2 1 2 5 4 5 5 6 3 2 3 2 2 1 2 1 0 1 1 1 5 3 3 3 3 1 4 6
14 13 11 12 12 9 7 9 10 12 13 14 15 16 15 12 10 6 1 2 1 2 2 3 1 2 2 3 2 3 5 2 3 2 3 2 3 2 2 3 2 2 3 1 3 1 4 4 2 5 4 2 4 5
17 15 13 12 12 12 9 8 8 10 11 14 14 15 14 13 5 5 1 1 2 0 2 2 3 5 4 2 2 3 1 0 1 1 1 1 3 2 2 3 1 2 2 2 5 2 2 2 7 5 6 3 5 4
18 16 15 13 14 12 12 9 8 9 11 13 14 14 15 13 3 1 1 1 1 1 1 1 1 3 5 0 1 2 2 0 2 1 1 2 2 2 2 2 2 4 5 5 5 1 4 2 6 3 5 4 6 8
19 17 16 15 15 12 13 10 9 8 10 12 14 14 14 11 2 1 1 1 2 2 2 1 2 3 2 2 3 4 3 2 1 1 3 3 0 1 1 2 5 7 8 6 6 5 5 4 5 4 2 1 5 7
21 19 18 15 17 12 13 10 11 9 10 12 12 14 12 11 5 2 1 1 1 1 1 3 2 1 2 2 3 3 3 2 2 2 1 0 1 1 2 4 5 5 3 4 6 3 3 3 2 1 3 2 4 6
22 20 18 15 16 13 13 10 11 9 9 12 12 14 11 1 2 1 1 2 2 1 1 4 3 2 0 1 1 1 1 1 1 1 2 0 1 1 3 5 6 8 7 5 5 7 2 3 3 1 2 5 7 6
22 20 19 17 16 14 12 11 10 9 9 9 10 8 3 6 6 1 2 2 2 2 2 1 4 0 1 1 1 0 1 2 3 1 1 2 1 1 7 8 0 4 7 4 7 3 5 4 2 2 2 2 4 5
22 20 20 18 15 15 9 10 9 9 7 7 3 2 2 1 2 1 2 3 1 1 3 3 3 3 1 1 1 1 0 2 1 2 2 2 3 9 10 7 8 9 9 6 7 6 4 2 4 3 2 4 3 7
23 21 19 18 16 14 10 8 8 7 3 6 2 1 2 1 1 4 1 1 1 1 0 3 1 2 1 2 1 1 1 1 1 1 2 3 7 12 8 7 8 11 9 10 7 2 2 4 5 3 3 4 4 6
24 21 20 18 17 14 11 10 7 3 5 2 1 1 2 1 1 0 1 2 1 2 4 2 2 2 1 2 3 1 1 1 1 2 2 4 6 6 4 7 5 10 11 6 6 4 4 5 5 3 4 5 5 6
24 22 21 19 17 14 12 12 10 5 3 3 3 3 1 1 1 0 4 0 4 4 1 2 2 2 1 2 1 1 2 3 5 0 2 6 7 4 5 4 3 7 9 7 4 6 4 5 5 5 5 6 5 6
25 23 21 20 18 16 12 14 12 9 10 3 1 2 2 2 1 6 6 4 3 5 5 4 2 2 1 1 2 2 3 5 1 0 7 8 4 2 4 6 4 5 6 7 4 3 4 3 4 5 6 5 5 5
26 23 23 22 20 15 19 16 16 12 5 3 5 6 6 5 7 6 3 2 1 4 6 4 4 3 2 2 1 3 1 3 2 3 10 5 6 6 7 5 8 8 7 7 6 6 6 5 5 4 5 4 3 5
26 24 23 20 17 22 19 17 20 3 4 5 5 7 9 6 2 3 3 3 2 4 4 3 3 2 2 3 3 3 2 5 8 8 5 3 3 6 7 6 6 7 7 6 5 5 5 5 4 5 5 4 3 3
28 25 17 23 24 20 18 17 8 2 4 5 7 4 2 2 2 3 4 3 5 5 2 2 3 3 5 3 4 9 6 10 5 4 3 1 1 4 5 6 6 6 7 6 6 5 5 5 5 5 4 4 4 3
29 4 19 26 21 20 21 5 3 7 7 7 6 5 3 3 5 3 5 4 8 7 5 3 6 7 3 3 6 6 8 4 0 2 1 2 3 4 5 7 7 7 6 6 5 5 4 3 3 0 4 4 2 4
5 8 20 25 19 10 2 5 5 7 8 4 5 5 3 1 2 3 3 7 5 4 4 4 5 5 6 7 5 3 2 2 2 3 2 1 0 2 4 5 6 6 6 5 5 4 4 3 3 4 5 4 3 5
10 11 19 20 13 6 7 6 4 5 7 3 3 2 3 3 3 3 4 5 2 1 4 2 4 4 4 1 1 1 2 1 3 2 2 1 2 4 4 5 5 5 6 6 5 4 4 6 4 2 1 1 2 2
20 20 21 23 19 4 5 2 1 2 2 2 2 2 3 3 1 2 4 2 3 2 3 4 4 1 3 3 4 4 4 3 2 4 3 3 3 4 5 5 4 5 5 4 3 7 2 1 2 3 3 3 2 2
17 7 11 9 3 4 4 3 3 2 2 2 1 1 3 2 2 2 2 2 2 3 3 1 4 3 5 5 5 3 4 4 4 4 3 2 3 3 3 3 4 4 4 4 4 4 6 4 3 3 1 1 1 2
3 11 4 3 4 3 5 3 3 2 2 2 2 1 3 2 2 2 2 1 2 1 3 3 3 5 7 7 6 6 6 6 7 5 8 1 2 3 4 4 4 4 3 3 3 3 3 3 3 2 2 2 0 0
9 4 3 2 5 4 2 2 2 3 2 2 1 3 2 2 2 2 1 1 2 2 2 2 3 5 7 8 5 6 3 5 4 3 1 2 2 2 3 4 3 3 3 1 2 2 2 5 3 4 2 1 1 0
8 6 5 4 5 4 1 3 2 2 2 2 2 2 3 2 0 2 1 2 1 1 3 6 6 6 5 3 4 4 4 4 3 2 3 1 2 3 3 3 3 3 2 2 2 2 2 1 3 3 3 1 1 1
8 7 5 6 3 4 4 3 3 3 3 1 2 2 1 1 2 2 1 2 2 3 4 6 5 5 5 5 5 4 2 3 5 2 2 3 2 2 2 2 2 1 1 2 1 2 1 2 2 3 2 1 1 1
9 5 5 3 2 3 2 3 2 2 2 3 3 1 1 2 3 2 2 2 2 3 5 5 5 6 5 3 5 4 5 5 5 2 2 3 2 0 1 2 1 2 2 2 2 3 3 3 3 3 1 2 5 4
6 4 3 2 2 2 3 3 2 4 4 3 2 2 2 1 2 2 1 1 2 3 4 4 3 4 5 6 5 3 3 3 2 2 3 2 2 2 1 2 2 1 1 3 2 3 4 4 3 3 3 1 1 2
3 5 4 3 4 4 3 4 4 3 2 3 1 2 2 3 2 3 2 3 5 6 5 4 2 3 3 3 4 4 3 3 3 3 1 0 1 2 2 2 2 5 3 3 3 1 2 4 4 4 3 3 3 1
5 4 3 5 4 5 4 3 2 2 2 2 2 3 3 3 2 3 3 6 5 4 3 4 4 4 3 3 2 2 2 3 5 5 4 3 3 3 3 3 3 3 2 2 6 7 7 4 4 4 4 3 3 2
4 3 4 4 5 4 1 1 0 2 2 1 1 1 3 2 2 1 3 3 5 5 5 5 4 4 5 5 5 5 2 2 2 1 1 3 4 4 3 3 3 3 3 3 2 3 9 3 1 4 4 2 2 1
2 3 5 5 3 1 2 2 2 1 2 2 2 2 1 3 0 0 1 2 2 3 3 4 5 3 2 4 2 4 5 2 0 2 5 5 5 5 4 3 3 2 1 1 1 0 2 2 3 3 4 3 3 2
5 4 3 3 1 4 4 3 1 2 3 3 3 3 4 2 1 3 3 2 3 4 7 3 4 5 3 3 4 5 11 7 6 5 8 6 5 6 4 3 3 2 2 3 3 2 3 4 3 4 4 5 4 4
3 4 4 4 5 5 4 4 5 3 3 2 2 0 1 2 4 4 2 3 3 4 4 4 5 6 6 7 7 6 8 4 10 15 18 18 16 10 6 5 5 5 5 4 4 4 5 5 5 5 5 6 6 5
Wind_Direction
247 260 274 283 294 313 331 341 345 347 354 352 358 6 7 6 8 360 103 28 42 315 219 136 38 313 321 351 18 295 356 340 359 46 25 348 356 331 344 272 319 311 118 96 22 150 234 183 235 222 125 109 358 347
241 249 262 278 287 299 319 328 338 340 347 340 350 354 7 359 1 353 23 120 324 238 320 341 56 244 268 186 145 331 168 211 7 345 22 280 303 357 140 275 318 319 183 235 211 351 146 130 144 126 104 66 357 329
232 239 245 259 272 286 294 307 324 330 340 334 341 346 356 357 355 13 357 359 244 250 229 231 210 165 98 87 168 109 19 159 45 212 341 288 261 75 263 246 77 258 150 167 34 283 134 16 112 154 75 24 329 318
228 235 242 248 260 269 280 293 314 322 333 328 330 337 346 354 320 278 356 344 274 178 274 229 129 122 106 23 218 186 178 308 193 260 253 253 252 101 284 237 208 190 126 194 243 349 64 73 163 88 38 4 338 331
224 230 235 248 253 260 275 286 296 311 319 321 325 331 338 349 196 69 95 53 22 83 270 306 151 95 110 308 242 207 218 202 239 227 218 234 312 70 191 25 249 183 186 166 220 160 146 163 120 82 96 15 329 313
221 223 229 237 253 254 263 276 287 307 318 315 322 324 341 339 161 238 213 156 336 19 54 314 125 68 11 282 248 207 222 177 261 267 226 236 244 134 222 237 244 175 130 143 179 113 104 85 82 144 138 276 281 282
219 223 227 226 244 251 262 273 281 296 314 312 321 328 342 133 165 212 193 128 162 116 76 314 273 131 334 270 181 254 180 241 274 220 237 189 202 167 248 233 236 180 152 131 127 116 59 165 171 72 260 270 293 275
215 219 222 221 232 241 253 269 279 292 304 314 328 352 62 121 112 186 74 110 137 100 74 221 261 274 93 163 210 50 254 184 194 308 359 218 86 193 256 236 139 127 119 131 173 181 134 136 73 280 225 294 315 295
210 213 219 221 225 233 238 258 278 288 299 324 54 74 106 221 208 123 121 51 1 150 200 164 213 228 172 124 80 347 116 234 122 243 217 82 222 229 227 199 176 181 178 186 140 126 105 173 247 253 226 328 299 301
205 207 214 215 222 227 229 246 260 275 304 120 111 151 259 128 97 127 160 145 42 285 323 237 45 181 93 143 176 107 206 278 247 183 86 210 256 253 225 210 171 164 149 131 103 301 212 260 202 220 224 235 230 267
201 201 210 207 218 220 220 234 224 219 144 92 171 243 113 203 125 130 264 153 124 258 197 234 108 138 338 153 162 62 193 72 345 241 188 259 259 248 181 146 144 148 152 160 120 117 120 142 165 203 276 253 255 268
197 199 201 201 209 214 217 227 201 191 159 132 120 91 119 185 77 360 230 347 199 234 123 149 137 71 107 304 135 189 142 84 240 141 59 261 253 224 135 153 125 129 137 148 145 161 179 186 201 199 222 244 252 259
196 193 195 198 203 206 216 223 206 147 115 68 109 205 115 231 240 197 218 235 224 163 160 151 83 40 30 299 33 118 121 226 57 44 237 236 248 180 151 129 119 125 126 137 139 152 180 201 206 195 237 240 247 263
189 190 197 199 201 200 214 204 172 144 105 190 198 215 198 206 237 197 209 104 78 100 140 116 114 156 137 161 76 177 149 55 298 256 238 252 235 188 168 150 135 177 170 171 175 177 194 206 244 250 237 238 250 287
190 193 197 199 198 216 199 196 174 128 145 208 181 222 213 228 119 105 103 128 120 125 125 109 87 164 154 173 195 74 52 248 210 233 233 270 254 152 160 161 154 162 170 181 173 172 191 199 218 272 275 262 266 296
192 198 196 194 209 197 197 202 175 124 196 209 203 238 201 68 205 166 176 172 154 143 90 71 125 169 214 180 164 212 174 223 235 222 274 340 242 170 161 160 156 153 160 160 171 173 175 180 204 239 295 292 273 269
184 169 176 195 190 195 203 173 132 195 212 201 218 218 214 235 243 218 153 142 150 149 179 150 190 209 94 193 231 201 215 227 30 316 325 322 239 188 158 155 153 156 157 160 162 165 180 179 137 343 281 285 245 267
162 160 174 180 186 193 170 160 201 212 209 205 203 196 175 157 115 103 97 143 147 190 156 203 120 197 207 204 218 240 271 299 255 242 277 261 166 125 146 145 142 154 157 165 165 164 150 158 189 239 230 244 256 268
155 158 181 179 169 152 184 194 196 224 206 159 105 101 92 81 50 65 110 153 44 47 119 169 234 219 231 245 11 311 271 287 311 317 288 26 111 137 131 128 138 152 156 156 167 183 193 194 201 211 269 316 243 266
188 184 198 196 185 159 188 153 336 223 184 115 87 99 68 73 71 85 96 114 148 175 187 215 227 16 8 23 9 339 332 323 305 289 263 188 165 159 169 162 170 154 145 145 172 187 140 187 223 212 218 227 222 266
210 183 193 186 71 44 44 105 109 46 111 96 96 138 93 104 95 114 116 157 184 218 244 292 41 1 351 330 309 301 296 296 274 271 311 311 160 175 156 149 141 151 160 171 187 223 202 193 208 173 173 273 219 252
112 111 108 107 104 87 78 10 55 72 69 86 113 54 113 112 106 58 35 180 233 4 30 5 345 334 320 316 319 307 298 300 284 280 290 122 134 180 172 165 164 175 180 180 170 179 200 179 146 149 151 246 348 300
107 79 78 74 96 65 61 299 93 24 116 101 91 81 94 89 53 339 94 201 76 62 36 5 294 273 274 285 294 289 272 300 295 289 13 65 73 97 136 149 162 158 155 177 132 145 169 198 237 157 187 98 106 304
47 52 52 56 50 97 107 55 51 78 86 70 66 85 58 64 300 63 49 45 52 36 17 349 330 325 323 332 338 339 344 312 323 4 4 54 92 54 72 88 76 71 95 131 140 169 152 217 214 108 115 110 36 340
76 358 45 50 28 84 74 61 24 55 80 63 86 66 53 53 72 86 92 61 353 9 360 342 341 338 324 327 332 333 360 353 344 4 15 21 73 77 69 57 49 82 118 114 153 150 174 103 96 111 119 124 184 241
73 347 45 29 23 77 103 96 98 134 101 58 65 145 47 50 56 68 47 336 327 347 352 341 332 326 323 344 331 338 342 343 319 328 28 3 9 80 169 165 200 266 192 178 144 163 168 160 144 140 162 292 291 169
80 17 11 22 13 87 91 75 48 71 67 58 51 32 53 40 90 56 72 64 315 326 316 298 293 295 300 315 330 344 333 341 347 298 306 354 35 23 69 165 212 279 183 177 189 168 168 171 162 175 183 130 139 99
80 32 67 336 60 19 76 47 44 52 59 347 292 33 59 52 53 342 346 356 327 314 293 273 211 267 292 310 314 322 314 318 285 265 266 274 31 29 11 342 314 298 170 185 194 185 162 165 169 178 162 173 184 148
49 354 36 40 51 47 36 39 73 56 2 342 26 57 75 70 20 318 312 328 318 325 338 339 340 326 287 250 243 292 320 346 360 1 353 322 338 332 338 324 318 318 323 319 299 198 195 182 176 165 164 158 158 126
351 348 77 45 69 56 329 356 26 348 359 31 13 127 107 120 155 310 332 346 359 345 339 350 337 3 346 356 342 347 37 38 59 113 254 265 248 270 296 291 288 283 301 325 322 329 328 164 196 128 101 88 102 111
344 35 61 54 86 323 277 298 329 321 23 41 13 96 134 161 151 8 25 296 301 337 1 1 337 344 22 348 343 331 315 295 114 266 253 254 260 261 263 261 253 258 262 283 302 65 69 68 98 128 154 173 228 178
25 52 99 80 299 298 18 45 359 69 343 60 330 4 355 50 331 296 297 357 7 9 339 354 322 304 273 253 252 241 275 293 302 296 286 271 260 248 236 219 218 213 215 213 203 181 165 176 175 181 185 209 227 237
46 38 32 61 23 5 331 54 15 355 16 40 334 221 211 172 209 245 269 180 186 235 274 276 282 279 273 272 263 271 296 277 284 312 315 309 298 278 211 204 192 195 208 217 209 191 191 191 203 213 219 226 235 242